This demonstration page uses our WeatherBlox Daily Observations layout. Learn more.

Left ArrowRight Arrow

53.62937, 11.41316

Hourly Observations for February 5, 2018

Temp ( °F °C ) Dew Point ( °F °C ) Humidity (%) Winds ( mph kmh ) Pressure ( in mb ) Visibility ( mi km ) Precip ( " mm )
7:50 am 07:50 Cloudy 30 -1 28 -2 93 93 NE 7 11 30.45 1031 30 48 N/A
8:20 am 08:20 Mostly Sunny 30 -1 27 -3 86 86 ENE 9 15 30.48 1032 7 11 N/A
8:50 am 08:50 Mostly Cloudy 32 0 27 -3 80 80 ENE 10 17 30.48 1032 30 48 N/A
9:20 am 09:20 Mostly Cloudy 32 0 28 -2 87 87 ENE 8 13 30.48 1032 30 48 N/A
9:50 am 09:50 Mostly Cloudy 32 0 28 -2 87 87 E 9 15 30.48 1032 30 48 N/A
10:20 am 10:20 Partly Cloudy with Light Rain/Snow 32 0 28 -2 87 87 ENE 9 15 30.48 1032 30 48 N/A
10:50 am 10:50 Mostly Cloudy 32 0 27 -3 80 80 E 9 15 30.48 1032 30 48 N/A
11:20 am 11:20 Mostly Cloudy 34 1 28 -2 81 81 NNE 8 13 30.48 1032 30 48 N/A
11:50 am 11:50 Partly Cloudy 32 0 27 -3 80 80 NE 8 13 30.48 1032 30 48 N/A
12:20 pm 12:20 Mostly Cloudy 32 0 27 -3 80 80 NE 7 11 30.48 1032 30 48 N/A
12:50 pm 12:50 Mostly Cloudy 32 0 27 -3 80 80 NE 6 9 30.45 1031 30 48 N/A
1:20 pm 13:20 Mostly Cloudy 32 0 23 -5 69 69 NNE 6 9 30.45 1031 30 48 N/A
1:50 pm 13:50 Mostly Cloudy 32 0 23 -5 69 69 NNE 5 7 30.45 1031 30 48 N/A
2:20 pm 14:20 Mostly Cloudy 32 0 25 -4 75 75 NNE 7 11 30.42 1030 30 48 N/A
2:50 pm 14:50 Mostly Cloudy 32 0 25 -4 75 75 NNE 6 9 30.42 1030 30 48 N/A
3:20 pm 15:20 Mostly Cloudy with Light Rain/Snow 32 0 25 -4 75 75 NE 8 13 30.42 1030 30 48 N/A
3:50 pm 15:50 Mostly Cloudy 32 0 25 -4 75 75 NE 8 13 30.42 1030 30 48 N/A
4:20 pm 16:20 Mostly Cloudy with Light Snow 32 0 27 -3 80 80 NNE 6 9 30.42 1030 30 48 N/A
4:50 pm 16:50 Mostly Cloudy 30 -1 27 -3 86 86 NNE 5 7 30.39 1029 30 48 N/A
5:20 pm 17:20 Mostly Cloudy with Light Snow 30 -1 27 -3 86 86 NE 5 7 30.39 1029 30 48 N/A
5:50 pm 17:50 Mostly Cloudy 30 -1 27 -3 86 86 NNE 5 7 30.39 1029 30 48 N/A

Powered by AerisWeather